[[{"header":{"parameterUnit":"m.s-1","parameterCategory":2,"la1":30.2991,"la2":30.254,"lo1":-89.0895,"lo2":-89.0444,"dx":0.0017,"dy":0.0017,"nx":28,"ny":28,"refTime":"2022-12-23T15:00:00:Z","depth":"0","parameterNumber":2,"parameterNumberName":"U-component_of_CURRENTS"},"data":[0,0,0,0,0,0,0,0,0,0,0,0,0,0,0,0,0,0,0,0,0,0,0,0,0,0,0,0,0,0,0,0,0,0,0,0,0,0,0,0,0,0,0,0,0,0,0,0,0,0,0,0,0,0,0,0,0,0,-0.2349,-0.235,0,-0.2413,-0.2413,-0.2414,-0.2387,-0.2385,-0.2384,-0.2383,-0.2418,-0.242,-0.2422,0,0,0,0,0,0,0,0,0,0,0,0,0,-0.2259,-0.226,-0.2349,-0.235,-0.2351,-0.2412,-0.2413,-0.2414,-0.2387,-0.2385,-0.2384,-0.2382,-0.2417,-0.242,-0.2422,0,0,0,0,0,0,0,0,0,0,0,0,0,-0.2306,-0.2261,-0.2349,-0.2346,-0.2347,-0.2412,-0.2413,-0.2414,-0.2387,-0.2385,-0.2383,-0.2381,-0.2416,-0.2419,-0.2423,-0.2485,0,0,-0.2433,-0.2434,0,0,0,0,0,0,0,0,-0.2303,-0.2309,-0.2346,-0.2347,-0.2347,-0.2391,-0.2394,-0.2437,-0.2388,-0.237,-0.2383,-0.238,-0.2409,-0.2413,-0.2427,-0.2487,-0.2488,-0.2433,-0.2435,-0.2437,-0.2438,0,0,0,0,0,0,0,-0.23,-0.2307,-0.2373,-0.2347,-0.2348,-0.236,-0.2364,-0.2403,-0.2399,-0.2372,-0.237,-0.238,-0.2408,-0.2424,-0.2428,-0.2489,-0.2433,-0.2436,-0.2438,-0.244,-0.2572,-0.2573,0,0,0,0,0,0,-0.2295,-0.2304,-0.2371,-0.2375,-0.2321,-0.2363,-0.2368,-0.2378,-0.2399,-0.2401,-0.2382,-0.2379,-0.242,-0.2424,-0.2429,-0.2478,-0.2437,-0.244,-0.2442,-0.257,-0.2572,-0.2574,0,0,0,0,0,0,-0.2293,-0.2301,-0.2368,-0.2342,-0.2351,-0.2367,-0.2379,-0.238,-0.2387,-0.2408,-0.2408,-0.2386,-0.2418,-0.2424,-0.2456,-0.2479,-0.2441,-0.2444,-0.2568,-0.2571,-0.2573,-0.2592,0,0,0,0,0,0,-0.229,-0.23,-0.2303,-0.2341,-0.2353,-0.2394,-0.2381,-0.2383,-0.2398,-0.2394,-0.2412,-0.2413,-0.2417,-0.2451,-0.2459,-0.2483,-0.2447,-0.2567,-0.257,-0.2572,-0.2589,-0.2594,-0.2599,0,0,0,0,0,-0.2287,-0.23,-0.2303,-0.2311,-0.2358,-0.2395,-0.2401,-0.2405,-0.24,-0.2403,-0.2418,-0.2412,-0.2474,-0.2455,-0.2464,-0.249,-0.2565,-0.2569,-0.2572,-0.2587,-0.2593,-0.2599,0,0,0,0,0,0,-0.2261,-0.23,-0.2304,-0.2327,-0.2353,-0.239,-0.24,-0.241,-0.2428,-0.2423,-0.2435,-0.2439,-0.2472,-0.2487,-0.2465,-0.2537,-0.2519,-0.2524,-0.2527,-0.2533,-0.2538,-0.2523,-0.245,0,0,0,0,0,-0.226,-0.2276,-0.2315,-0.2331,-0.2347,-0.2376,-0.2392,-0.2399,-0.2424,-0.2428,-0.2444,-0.2468,-0.25,-0.2517,-0.254,-0.259,-0.2587,-0.2613,-0.2617,-0.2621,-0.2617,-0.2653,-0.266,-0.2585,-0.2585,-0.2585,0,0,-0.2255,-0.2279,-0.2287,-0.2327,-0.2349,-0.2381,-0.2379,-0.2405,-0.2431,-0.2434,-0.2467,-0.2483,-0.2516,-0.2558,-0.2576,-0.257,-0.2638,-0.2626,-0.2628,-0.2622,-0.2657,-0.2664,-0.2671,-0.2587,-0.2587,-0.2586,0,0,-0.2258,-0.2274,-0.2291,-0.2319,-0.2356,-0.238,-0.2388,-0.2427,-0.2438,-0.2483,-0.2488,-0.2519,-0.257,-0.2596,-0.2618,-0.2672,-0.2657,-0.2679,-0.2698,-0.2734,-0.274,-0.2745,-0.2728,-0.2732,-0.2687,-0.2687,-0.2687,0,-0.2249,-0.2277,-0.2301,-0.2331,-0.2355,-0.2381,-0.241,-0.244,-0.2481,-0.2498,-0.249,-0.2568,-0.2592,-0.2653,-0.2665,-0.2683,-0.2677,-0.2671,-0.2738,-0.2744,-0.2749,-0.2731,-0.2734,-0.2688,-0.2688,-0.2688,-0.2688,0,-0.2267,-0.2294,-0.2309,-0.2354,-0.2384,-0.2412,-0.2459,-0.2484,-0.2505,-0.2532,-0.2581,-0.2617,-0.2655,-0.268,-0.269,-0.2744,-0.2717,-0.2733,-0.2718,-0.2757,-0.2736,-0.2739,-0.269,-0.269,-0.2689,-0.2689,0,0,-0.2239,-0.2307,-0.2312,-0.2334,-0.2398,-0.2421,-0.2476,-0.2526,-0.2556,-0.2593,-0.2633,-0.2694,-0.2694,-0.272,-0.274,-0.2778,-0.2805,-0.2767,-0.2768,-0.2738,-0.2841,-0.2659,-0.2645,-0.283,-0.2831,-0.2832,-0.2802,0,-0.2244,-0.2292,-0.2332,-0.2379,-0.2408,-0.2456,-0.2502,-0.255,-0.2592,-0.2635,-0.2678,-0.2719,-0.2718,-0.2734,-0.2771,-0.2806,-0.2819,-0.2809,-0.2817,-0.2816,-0.2642,-0.2646,-0.2507,-0.2454,-0.2805,-0.2806,-0.2806,0,-0.2249,-0.2279,-0.2323,-0.2387,-0.2404,-0.2436,-0.2503,-0.2547,-0.262,-0.2651,-0.2696,-0.2725,-0.2781,-0.2776,-0.2833,-0.2823,-0.2821,-0.2842,-0.2842,-0.2666,-0.2642,-0.2479,-0.2448,-0.2399,-0.2812,-0.2811,-0.2811,0,-0.2204,-0.2275,-0.2302,-0.2326,-0.2404,-0.2427,-0.2463,-0.254,-0.2579,-0.2651,-0.2686,-0.2747,-0.2776,-0.281,-0.2819,-0.2837,-0.2859,-0.2897,-0.2724,-0.2711,-0.2589,-0.2561,-0.25,-0.292,-0.292,-0.292,-0.292,0,-0.2192,-0.2214,-0.2278,-0.229,-0.2321,-0.2385,-0.2426,-0.2477,-0.2555,-0.2594,-0.267,-0.2712,-0.2789,-0.2807,-0.2818,-0.2747,-0.285,-0.2707,-0.2692,-0.2586,-0.256,-0.2508,-0.2554,-0.2919,-0.2919,-0.2919,-0.292,0,-0.2138,-0.2186,-0.2216,-0.2281,-0.2299,-0.2314,-0.239,-0.2417,-0.2501,-0.2558,-0.2579,-0.2688,-0.2702,-0.2729,-0.2775,-0.2717,-0.2625,-0.2638,-0.2468,-0.243,-0.2203,-0.2256,-0.221,-0.2138,-0.2455,-0.245,-0.2446,0,-0.2116,-0.2126,-0.2182,-0.2184,-0.2207,-0.2242,-0.2265,-0.2367,-0.2404,-0.2533,-0.2549,-0.2601,-0.2609,-0.2571,-0.2488,-0.2416,-0.2455,-0.2224,-0.2233,-0.2139,-0.2192,-0.2257,-0.2206,-0.2089,-0.2082,-0.2077,-0.2073,0,-0.2062,-0.208,-0.2091,-0.2087,-0.2105,-0.2134,-0.2175,-0.2211,-0.2325,-0.2381,-0.2447,-0.2474,-0.2432,-0.2298,-0.2162,-0.2111,-0.2137,-0.2105,-0.2091,-0.1944,-0.1936,-0.1874,-0.2138,-0.2025,-0.203,-0.2033,-0.2036,-0.2038,-0.2008,-0.1991,-0.1987,-0.1976,-0.1991,-0.1991,-0.1959,-0.2036,-0.2076,-0.2125,-0.2256,-0.2248,-0.2159,-0.1957,-0.186,-0.1615,-0.1788,-0.1575,-0.1661,-0.1743,-0.1626,-0.1726,-0.1539,-0.1541,-0.1543,-0.1544,-0.1546,0,-0.1941,-0.1903,-0.1872,-0.1838,-0.1782,-0.1836,-0.1861,-0.1812,-0.1802,-0.1915,-0.1941,-0.1905,-0.1708,-0.161,-0.1359,-0.1227,-0.1226,-0.1196,-0.1305,-0.1285,-0.1428,-0.1357,-0.1019,-0.1019,-0.1019,-0.1019,-0.102,-0.102,-0.1899,-0.1832,-0.1797,-0.1643,-0.1593,-0.1477,-0.1454,-0.143,-0.1468,-0.1478,-0.1516,-0.1597,-0.1548,-0.1456,-0.1184,-0.107,-0.1071,-0.1014,-0.1078,-0.1224,-0.1269,-0.1311,-0.1251,-0.0897,-0.0897,-0.0859,-0.0859,-0.0859]},{"header":{"parameterUnit":"m.s-1","parameterCategory":2,"la1":30.2991,"la2":30.254,"lo1":-89.0895,"lo2":-89.0444,"dx":0.0017,"dy":0.0017,"nx":28,"ny":28,"refTime":"2022-12-23T15:00:00:Z","depth":"0","parameterNumber":3,"parameterNumberName":"V-component_of_CURRENTS"},"data":[0,0,0,0,0,0,0,0,0,0,0,0,0,0,0,0,0,0,0,0,0,0,0,0,0,0,0,0,0,0,0,0,0,0,0,0,0,0,0,0,0,0,0,0,0,0,0,0,0,0,0,0,0,0,0,0,0,0,-0.0219,-0.0219,0,-0.0172,-0.0172,-0.0171,-0.0123,-0.0123,-0.0122,-0.0121,-0.0019,-0.0017,-0.0015,0,0,0,0,0,0,0,0,0,0,0,0,0,-0.0278,-0.0277,-0.0219,-0.0219,-0.0218,-0.0172,-0.0171,-0.0171,-0.0123,-0.0123,-0.0122,-0.0121,-0.002,-0.0017,-0.0015,0,0,0,0,0,0,0,0,0,0,0,0,0,-0.0244,-0.0277,-0.0219,-0.0189,-0.0185,-0.0172,-0.0171,-0.0171,-0.0124,-0.0123,-0.0122,-0.0121,-0.002,-0.0017,-0.0014,-0.0015,0,0,-0.0005,-0.0003,0,0,0,0,0,0,0,0,-0.0246,-0.0242,-0.0194,-0.0191,-0.0187,-0.0152,-0.0155,-0.0116,-0.0124,-0.0147,-0.0121,-0.012,-0.0059,-0.0052,-0.0047,-0.001,-0.0006,-0.0004,-0.0002,-0.0001,-0.0,0,0,0,0,0,0,0,-0.0249,-0.0244,-0.0201,-0.0193,-0.0189,-0.018,-0.0174,-0.0147,-0.0109,-0.0145,-0.0142,-0.0136,-0.0056,-0.005,-0.0044,-0.0004,-0.0004,-0.0002,0.0,0.0002,0.0047,0.0047,0,0,0,0,0,0,-0.0254,-0.0246,-0.0202,-0.02,-0.0214,-0.018,-0.0173,-0.0165,-0.011,-0.0101,-0.0137,-0.0134,-0.0056,-0.0048,-0.004,-0.0039,-0.0001,0.0002,0.0004,0.0048,0.0047,0.0046,0,0,0,0,0,0,-0.0256,-0.0251,-0.0204,-0.0222,-0.0215,-0.018,-0.0171,-0.0164,-0.0156,-0.0104,-0.0094,-0.0134,-0.0055,-0.0045,-0.0024,-0.0035,0.0003,0.0006,0.0049,0.0048,0.0047,-0.0036,0,0,0,0,0,0,-0.0258,-0.0252,-0.025,-0.0222,-0.0214,-0.0202,-0.0171,-0.0164,-0.0154,-0.0149,-0.0099,-0.0088,-0.0054,-0.003,-0.0021,-0.003,0.0009,0.005,0.0048,0.0047,-0.0033,-0.004,-0.0046,0,0,0,0,0,-0.026,-0.0264,-0.0251,-0.0245,-0.0213,-0.0203,-0.0198,-0.017,-0.0155,-0.0157,-0.0126,-0.009,-0.0031,-0.0028,-0.0018,-0.0026,0.005,0.0049,0.0047,-0.003,-0.0039,-0.0046,0,0,0,0,0,0,-0.0288,-0.0258,-0.0243,-0.0237,-0.0223,-0.0194,-0.0195,-0.0177,-0.0156,-0.015,-0.0101,-0.0089,-0.0076,-0.0041,-0.0039,-0.0016,0.0017,0.0017,-0.0045,-0.0053,-0.006,-0.0066,0.0011,0,0,0,0,0,-0.0295,-0.029,-0.0262,-0.0259,-0.0254,-0.0226,-0.0219,-0.0201,-0.0178,-0.0168,-0.0134,-0.0099,-0.0077,-0.0057,-0.0032,-0.0019,0.0034,-0.0017,-0.0023,-0.0029,-0.0028,0.0028,0.0026,0.0041,0.0042,0.0042,0,0,-0.0305,-0.0289,-0.0285,-0.0266,-0.0252,-0.0259,-0.022,-0.0214,-0.0218,-0.016,-0.0156,-0.0124,-0.008,-0.0071,-0.006,-0.004,-0.0004,-0.0031,-0.0037,-0.0032,0.0026,0.0025,0.0023,0.004,0.0041,0.0041,0,0,-0.0331,-0.031,-0.0318,-0.0313,-0.0297,-0.0284,-0.0285,-0.026,-0.0245,-0.024,-0.0202,-0.0177,-0.0141,-0.0111,-0.0092,-0.0119,-0.0047,-0.011,-0.0143,-0.009,-0.0091,-0.0091,-0.0016,-0.0009,-0.0108,-0.0108,-0.0108,0,-0.0345,-0.035,-0.0321,-0.0333,-0.0336,-0.03,-0.0319,-0.0305,-0.0277,-0.0268,-0.0248,-0.0198,-0.016,-0.0143,-0.0153,-0.0134,-0.0084,-0.0118,-0.0099,-0.0098,-0.0096,-0.002,-0.001,-0.0112,-0.0112,-0.0111,-0.0111,0,-0.0379,-0.0387,-0.0395,-0.0399,-0.04,-0.041,-0.0389,-0.0386,-0.0365,-0.0342,-0.032,-0.027,-0.0236,-0.0223,-0.0195,-0.0172,-0.0132,-0.0119,-0.0079,-0.0103,-0.002,-0.0009,-0.0118,-0.0117,-0.0116,-0.0115,0,0,-0.0402,-0.0416,-0.042,-0.0438,-0.0436,-0.0443,-0.0454,-0.0448,-0.0451,-0.0414,-0.0409,-0.0365,-0.0326,-0.0301,-0.0258,-0.0209,-0.0153,-0.0163,-0.0159,-0.0091,-0.0016,-0.0011,0.0003,-0.0137,-0.0136,-0.0135,0.0041,0,-0.044,-0.048,-0.0474,-0.0522,-0.0544,-0.0526,-0.0541,-0.053,-0.0505,-0.049,-0.0428,-0.0404,-0.0358,-0.034,-0.0288,-0.0197,-0.0129,-0.0201,-0.0001,0.0005,0.0011,0.0014,0.0021,0.0176,0.0052,0.0054,0.0055,0,-0.0479,-0.0501,-0.0549,-0.0586,-0.0593,-0.0614,-0.0628,-0.0633,-0.0599,-0.0576,-0.0534,-0.0482,-0.0416,-0.0372,-0.021,-0.0257,-0.014,-0.0057,-0.0048,-0.0006,0.003,0.0178,0.0202,0.0372,0.0073,0.0072,0.0071,0,-0.0516,-0.0559,-0.0599,-0.0612,-0.0642,-0.0659,-0.067,-0.0656,-0.0662,-0.0621,-0.0612,-0.0527,-0.048,-0.0343,-0.0177,-0.0188,0.0016,0.0026,0.0152,0.0156,0.0221,0.0226,0.043,0.0161,0.0161,0.016,0.016,0,-0.0563,-0.0599,-0.062,-0.0646,-0.0699,-0.0697,-0.0735,-0.0732,-0.0721,-0.0731,-0.0652,-0.0629,-0.0471,-0.0343,-0.0185,0.0016,0.0019,0.0155,0.0197,0.0192,0.0193,0.039,0.0482,0.0167,0.0165,0.0164,0.0163,0,-0.0601,-0.0614,-0.0667,-0.0704,-0.072,-0.0753,-0.079,-0.0812,-0.0789,-0.0798,-0.0788,-0.0694,-0.0537,-0.0355,-0.0123,0.0004,0.0316,0.0279,0.0268,0.0303,0.0538,0.0623,0.0884,0.1017,0.0435,0.0436,0.0437,0,-0.0624,-0.0652,-0.071,-0.0745,-0.0764,-0.0808,-0.0843,-0.0848,-0.0868,-0.0834,-0.084,-0.0708,-0.0616,-0.0278,-0.0033,0.0246,0.0409,0.043,0.0399,0.0561,0.0689,0.0744,0.0841,0.0474,0.0475,0.0476,0.0477,0,-0.0664,-0.0679,-0.0718,-0.0793,-0.0841,-0.0896,-0.0939,-0.097,-0.097,-0.0966,-0.0919,-0.0842,-0.0542,-0.0265,0.008,0.0261,0.056,0.0455,0.0636,0.0745,0.0811,0.0953,0.0366,0.0485,0.0485,0.0484,0.0483,0.0483,-0.0684,-0.0716,-0.0766,-0.0834,-0.0897,-0.0966,-0.1006,-0.1047,-0.1078,-0.1075,-0.0994,-0.0879,-0.0452,0.0011,0.0225,0.0654,0.0667,0.0784,0.0882,0.0929,0.1028,0.0455,0.0597,0.0597,0.0596,0.0596,0.0596,0,-0.0703,-0.0735,-0.0804,-0.0884,-0.0952,-0.0981,-0.1055,-0.1081,-0.1114,-0.111,-0.1059,-0.0683,-0.025,0.0186,0.0778,0.1048,0.1152,0.1206,0.1308,0.1396,0.0904,0.0872,0.1064,0.1064,0.1063,0.1063,0.1063,0.1063,-0.0713,-0.0762,-0.0795,-0.09,-0.096,-0.1034,-0.1069,-0.1117,-0.1118,-0.1044,-0.09,-0.08,-0.0135,0.0829,0.14,0.1483,0.1761,0.1747,0.192,0.1581,0.1549,0.1518,0.151,0.1832,0.1833,0.2377,0.2382,0.2387]}],[{"header":{"parameterUnit":"m.s-1","parameterCategory":2,"la1":30.2991,"la2":30.254,"lo1":-89.0895,"lo2":-89.0444,"dx":0.0017,"dy":0.0017,"nx":28,"ny":28,"refTime":"2022-12-23T15:00:00:Z","depth":"2","parameterNumber":2,"parameterNumberName":"U-component_of_CURRENTS"},"data":[0,0,0,0,0,0,0,0,0,0,0,0,0,0,0,0,0,0,0,0,0,0,0,0,0,0,0,0,0,0,0,0,0,0,0,0,0,0,0,0,0,0,0,0,0,0,0,0,0,0,0,0,0,0,0,0,0,0,-0.2359,-0.2359,0,-0.2422,-0.2422,-0.2423,-0.2398,-0.2396,-0.2395,-0.2394,-0.2429,-0.2431,-0.2433,0,0,0,0,0,0,0,0,0,0,0,0,0,-0.227,-0.2271,-0.2359,-0.2359,-0.236,-0.2422,-0.2422,-0.2423,-0.2398,-0.2396,-0.2395,-0.2393,-0.2428,-0.2431,-0.2433,0,0,0,0,0,0,0,0,0,0,0,0,0,-0.2317,-0.2271,-0.2358,-0.2356,-0.2357,-0.2422,-0.2422,-0.2423,-0.2398,-0.2396,-0.2394,-0.2392,-0.2427,-0.2431,-0.2434,-0.2495,0,0,-0.2444,-0.2445,0,0,0,0,0,0,0,0,-0.2314,-0.232,-0.2356,-0.2357,-0.2357,-0.2401,-0.2404,-0.2446,-0.2399,-0.2381,-0.2394,-0.2391,-0.242,-0.2423,-0.2438,-0.2497,-0.2498,-0.2444,-0.2446,-0.2448,-0.2449,0,0,0,0,0,0,0,-0.2311,-0.2317,-0.2382,-0.2357,-0.2358,-0.2371,-0.2374,-0.2412,-0.2409,-0.2383,-0.2381,-0.2391,-0.2419,-0.2435,-0.2439,-0.2499,-0.2444,-0.2447,-0.2449,-0.245,-0.2581,-0.2582,0,0,0,0,0,0,-0.2306,-0.2314,-0.238,-0.2384,-0.2332,-0.2374,-0.2378,-0.2388,-0.241,-0.2412,-0.2393,-0.239,-0.243,-0.2435,-0.244,-0.2488,-0.2448,-0.2451,-0.2453,-0.2579,-0.2581,-0.2583,0,0,0,0,0,0,-0.2303,-0.2311,-0.2378,-0.2351,-0.2361,-0.2377,-0.2389,-0.239,-0.2398,-0.2418,-0.2418,-0.2398,-0.2429,-0.2435,-0.2467,-0.249,-0.2452,-0.2455,-0.2578,-0.258,-0.2582,-0.2601,0,0,0,0,0,0,-0.2301,-0.231,-0.2313,-0.2351,-0.2362,-0.2404,-0.2391,-0.2393,-0.2408,-0.2405,-0.2423,-0.2424,-0.2428,-0.2462,-0.247,-0.2494,-0.2458,-0.2576,-0.2579,-0.2581,-0.2599,-0.2604,-0.2608,0,0,0,0,0,-0.2297,-0.231,-0.2313,-0.2321,-0.2367,-0.2404,-0.2411,-0.2415,-0.241,-0.2414,-0.243,-0.2423,-0.2485,-0.2466,-0.2475,-0.25,-0.2574,-0.2578,-0.2581,-0.2597,-0.2603,-0.2608,0,0,0,0,0,0,-0.2272,-0.231,-0.2314,-0.2337,-0.2363,-0.24,-0.241,-0.242,-0.2439,-0.2434,-0.2446,-0.245,-0.2483,-0.2497,-0.2476,-0.2547,-0.2529,-0.2534,-0.2537,-0.2543,-0.2548,-0.2533,-0.246,0,0,0,0,0,-0.2272,-0.2288,-0.2326,-0.2342,-0.2357,-0.2386,-0.2402,-0.2409,-0.2434,-0.2439,-0.2455,-0.2479,-0.2511,-0.2527,-0.255,-0.26,-0.2598,-0.2622,-0.2627,-0.263,-0.2626,-0.2662,-0.2669,-0.2594,-0.2594,-0.2594,0,0,-0.2266,-0.229,-0.2298,-0.2337,-0.2359,-0.2392,-0.239,-0.2416,-0.2442,-0.2444,-0.2478,-0.2494,-0.2526,-0.2568,-0.2586,-0.2579,-0.2648,-0.2635,-0.2638,-0.2631,-0.2666,-0.2673,-0.2679,-0.2596,-0.2596,-0.2595,0,0,-0.227,-0.2286,-0.2303,-0.233,-0.2367,-0.2391,-0.2399,-0.2438,-0.2449,-0.2494,-0.2499,-0.253,-0.258,-0.2605,-0.2628,-0.2681,-0.2667,-0.2688,-0.2707,-0.2742,-0.2748,-0.2754,-0.274,-0.2744,-0.2696,-0.2696,-0.2696,0,-0.2262,-0.2289,-0.2313,-0.2342,-0.2366,-0.2392,-0.2421,-0.2451,-0.2492,-0.2509,-0.2501,-0.2579,-0.2602,-0.2662,-0.2674,-0.2692,-0.2688,-0.268,-0.2747,-0.2752,-0.2757,-0.2743,-0.2747,-0.2697,-0.2697,-0.2697,-0.2697,0,-0.228,-0.2306,-0.2321,-0.2366,-0.2395,-0.2423,-0.247,-0.2495,-0.2516,-0.2542,-0.2591,-0.2626,-0.2664,-0.2688,-0.2698,-0.2752,-0.2728,-0.2742,-0.2726,-0.2766,-0.2748,-0.2752,-0.2699,-0.2699,-0.2698,-0.2698,0,0,-0.2253,-0.2319,-0.2324,-0.2346,-0.2409,-0.2432,-0.2486,-0.2536,-0.2565,-0.2603,-0.2642,-0.2703,-0.2703,-0.2728,-0.2747,-0.2785,-0.2815,-0.2776,-0.2777,-0.275,-0.2853,-0.267,-0.2657,-0.2838,-0.284,-0.2841,-0.2818,0,-0.2257,-0.2305,-0.2344,-0.2391,-0.2419,-0.2467,-0.2513,-0.256,-0.2601,-0.2644,-0.2686,-0.2726,-0.2726,-0.2742,-0.2779,-0.2814,-0.2829,-0.2817,-0.2829,-0.2829,-0.2653,-0.2657,-0.2477,-0.2427,-0.2822,-0.2822,-0.2823,0,-0.2262,-0.2292,-0.2336,-0.2399,-0.2416,-0.2448,-0.2514,-0.2557,-0.2629,-0.266,-0.2704,-0.2732,-0.2788,-0.2783,-0.2842,-0.2831,-0.2832,-0.2854,-0.2854,-0.2677,-0.2653,-0.2458,-0.2419,-0.2829,-0.2829,-0.2828,-0.2828,0,-0.2218,-0.2288,-0.2316,-0.2339,-0.2416,-0.2439,-0.2475,-0.255,-0.2589,-0.2659,-0.2692,-0.2753,-0.2782,-0.2818,-0.283,-0.2847,-0.2873,-0.291,-0.274,-0.2727,-0.257,-0.2538,-0.2936,-0.2936,-0.2936,-0.2936,-0.2937,0,-0.2207,-0.2228,-0.2293,-0.2304,-0.2335,-0.2398,-0.2438,-0.2489,-0.2565,-0.2602,-0.2677,-0.2717,-0.2795,-0.2815,-0.283,-0.2761,-0.2865,-0.2724,-0.2709,-0.2566,-0.2537,-0.2892,-0.2887,-0.2936,-0.2936,-0.2936,-0.2936,0,-0.2153,-0.2201,-0.2231,-0.2295,-0.2314,-0.2328,-0.2402,-0.2429,-0.2511,-0.2565,-0.2585,-0.2692,-0.2708,-0.2737,-0.2787,-0.2731,-0.2713,-0.2659,-0.2448,-0.2406,-0.2548,-0.2545,-0.2491,-0.2484,-0.2479,-0.2474,-0.247,0,-0.2131,-0.2141,-0.2197,-0.2199,-0.2222,-0.2258,-0.2279,-0.2379,-0.2414,-0.254,-0.2554,-0.2605,-0.2606,-0.2572,-0.2488,-0.242,-0.2558,-0.2204,-0.2204,-0.2511,-0.2504,-0.2509,-0.2514,-0.2013,-0.2006,-0.2,-0.1995,0,-0.2077,-0.2095,-0.2106,-0.2103,-0.2121,-0.215,-0.219,-0.2223,-0.2334,-0.2382,-0.2445,-0.2463,-0.2417,-0.2255,-0.2122,-0.2077,-0.2199,-0.2073,-0.2475,-0.213,-0.2052,-0.2047,-0.207,-0.1941,-0.1947,-0.1951,-0.1953,-0.1956,-0.2023,-0.2007,-0.2004,-0.1993,-0.2008,-0.2007,-0.1975,-0.2035,-0.2065,-0.2076,-0.2213,-0.2147,-0.2151,-0.1842,-0.1739,-0.1641,-0.1813,-0.1761,-0.1785,-0.1814,-0.1739,-0.1652,-0.1451,-0.1454,-0.1456,-0.1458,-0.1459,0,-0.1953,-0.1919,-0.1889,-0.1856,-0.1801,-0.1854,-0.1877,-0.1817,-0.1781,-0.1821,-0.1807,-0.1631,-0.1488,-0.1503,-0.1261,-0.1198,-0.1243,-0.1161,-0.125,-0.1302,-0.1349,-0.1255,-0.0837,-0.0835,-0.0833,-0.0832,0,0,-0.1911,-0.1845,-0.181,-0.166,-0.1613,-0.1499,-0.1475,-0.1424,-0.1415,-0.1343,-0.1293,-0.1347,-0.1437,-0.1125,-0.1056,-0.0914,-0.1103,-0.0859,-0.1358,-0.1515,-0.156,-0.1688,-0.1599,0,0,0,0,0]},{"header":{"parameterUnit":"m.s-1","parameterCategory":2,"la1":30.2991,"la2":30.254,"lo1":-89.0895,"lo2":-89.0444,"dx":0.0017,"dy":0.0017,"nx":28,"ny":28,"refTime":"2022-12-23T15:00:00:Z","depth":"2","parameterNumber":3,"parameterNumberName":"V-component_of_CURRENTS"},"data":[0,0,0,0,0,0,0,0,0,0,0,0,0,0,0,0,0,0,0,0,0,0,0,0,0,0,0,0,0,0,0,0,0,0,0,0,0,0,0,0,0,0,0,0,0,0,0,0,0,0,0,0,0,0,0,0,0,0,-0.0159,-0.0158,0,-0.0111,-0.0111,-0.011,-0.0063,-0.0063,-0.0062,-0.0061,0.0039,0.0041,0.0043,0,0,0,0,0,0,0,0,0,0,0,0,0,-0.0217,-0.0216,-0.0159,-0.0158,-0.0158,-0.0111,-0.0111,-0.011,-0.0063,-0.0063,-0.0062,-0.0061,0.0039,0.0041,0.0044,0,0,0,0,0,0,0,0,0,0,0,0,0,-0.0183,-0.0216,-0.0159,-0.0129,-0.0125,-0.0111,-0.0111,-0.011,-0.0064,-0.0063,-0.0062,-0.0061,0.0038,0.0041,0.0044,0.0044,0,0,0.0054,0.0055,0,0,0,0,0,0,0,0,-0.0185,-0.0181,-0.0134,-0.0131,-0.0127,-0.0092,-0.0094,-0.0056,-0.0064,-0.0087,-0.0061,-0.006,-0.0,0.0006,0.0012,0.0049,0.0053,0.0054,0.0056,0.0057,0.0058,0,0,0,0,0,0,0,-0.0188,-0.0183,-0.014,-0.0133,-0.0129,-0.012,-0.0114,-0.0087,-0.0049,-0.0085,-0.0082,-0.0076,0.0002,0.0009,0.0015,0.0055,0.0054,0.0057,0.0058,0.006,0.0105,0.0104,0,0,0,0,0,0,-0.0194,-0.0185,-0.0142,-0.0139,-0.0154,-0.012,-0.0113,-0.0104,-0.005,-0.0041,-0.0077,-0.0074,0.0003,0.0011,0.0018,0.0018,0.0057,0.006,0.0062,0.0105,0.0104,0.0104,0,0,0,0,0,0,-0.0195,-0.019,-0.0144,-0.0161,-0.0154,-0.012,-0.011,-0.0104,-0.0096,-0.0045,-0.0035,-0.0075,0.0004,0.0014,0.0034,0.0023,0.0061,0.0064,0.0106,0.0105,0.0104,0.0021,0,0,0,0,0,0,-0.0197,-0.0191,-0.019,-0.0161,-0.0154,-0.0141,-0.0111,-0.0104,-0.0094,-0.0089,-0.004,-0.0029,0.0005,0.0029,0.0037,0.0028,0.0067,0.0107,0.0106,0.0104,0.0024,0.0017,0.0011,0,0,0,0,0,-0.0199,-0.0203,-0.019,-0.0185,-0.0152,-0.0142,-0.0138,-0.011,-0.0095,-0.0098,-0.0067,-0.0031,0.0027,0.003,0.004,0.0032,0.0108,0.0106,0.0104,0.0027,0.0018,0.0011,0,0,0,0,0,0,-0.0228,-0.0198,-0.0183,-0.0178,-0.0163,-0.0134,-0.0134,-0.0116,-0.0096,-0.009,-0.0042,-0.003,-0.0018,0.0017,0.002,0.0041,0.0074,0.0075,0.0012,0.0004,-0.0002,-0.001,0.0069,0,0,0,0,0,-0.0235,-0.023,-0.0202,-0.02,-0.0194,-0.0166,-0.0159,-0.0142,-0.0118,-0.0108,-0.0075,-0.004,-0.0018,0.0001,0.0026,0.0038,0.009,0.004,0.0033,0.0027,0.0028,0.0079,0.0077,0.0099,0.0099,0.0099,0,0,-0.0245,-0.0229,-0.0226,-0.0206,-0.0192,-0.0199,-0.016,-0.0154,-0.0159,-0.01,-0.0097,-0.0066,-0.0022,-0.0013,-0.0003,0.0018,0.0051,0.0025,0.002,0.0024,0.0078,0.0076,0.0074,0.0098,0.0098,0.0098,0,0,-0.0272,-0.0251,-0.0259,-0.0254,-0.0237,-0.0224,-0.0226,-0.0201,-0.0186,-0.0181,-0.0143,-0.0119,-0.0083,-0.0054,-0.0035,-0.0063,0.0008,-0.0054,-0.0088,-0.0039,-0.004,-0.004,0.0034,0.0041,-0.0052,-0.0052,-0.0052,0,-0.0287,-0.0291,-0.0262,-0.0274,-0.0277,-0.0241,-0.0259,-0.0245,-0.0218,-0.0209,-0.0189,-0.0141,-0.0103,-0.0088,-0.0097,-0.0078,-0.0029,-0.0063,-0.0047,-0.0047,-0.0046,0.0031,0.004,-0.0056,-0.0055,-0.0055,-0.0055,0,-0.032,-0.0329,-0.0337,-0.034,-0.0341,-0.035,-0.0329,-0.0327,-0.0306,-0.0284,-0.0263,-0.0214,-0.0181,-0.0168,-0.014,-0.012,-0.008,-0.0068,-0.0028,-0.0053,0.003,0.004,-0.0062,-0.006,-0.0059,-0.0058,0,0,-0.0345,-0.0357,-0.0362,-0.038,-0.0377,-0.0383,-0.0394,-0.0389,-0.0393,-0.0357,-0.0353,-0.0311,-0.0272,-0.0248,-0.0205,-0.016,-0.0107,-0.0115,-0.011,-0.0043,0.0024,0.003,0.0043,-0.0094,-0.0093,-0.0092,0.0084,0,-0.0383,-0.0422,-0.0416,-0.0463,-0.0485,-0.0466,-0.0482,-0.0471,-0.0447,-0.0434,-0.0373,-0.0352,-0.0306,-0.0288,-0.024,-0.0151,-0.0085,-0.0154,0.0041,0.0047,0.0053,0.0052,0.0029,0.0181,0.0095,0.0096,0.0098,0,-0.0422,-0.0444,-0.0491,-0.0528,-0.0535,-0.0556,-0.057,-0.0575,-0.0544,-0.0521,-0.0482,-0.0431,-0.0369,-0.0324,-0.0169,-0.0215,-0.0099,-0.0018,-0.0009,0.0032,0.0071,0.019,0.0204,0.0116,0.0115,0.0113,0.0112,0,-0.0461,-0.0502,-0.0542,-0.0555,-0.0584,-0.0601,-0.0613,-0.0599,-0.0606,-0.0567,-0.0561,-0.0479,-0.0435,-0.0302,-0.0139,-0.0149,0.0048,0.0058,0.0185,0.0189,0.0226,0.0229,0.019,0.019,0.0189,0.0189,0.0188,0,-0.0508,-0.0544,-0.0564,-0.059,-0.0643,-0.064,-0.0679,-0.0677,-0.0667,-0.0679,-0.0602,-0.0582,-0.0428,-0.0304,-0.0148,0.0048,0.005,0.0187,0.0228,0.0197,0.0195,0.0179,0.0175,0.0195,0.0194,0.0193,0.0191,0,-0.0548,-0.056,-0.0613,-0.0649,-0.0664,-0.0698,-0.0735,-0.0758,-0.0736,-0.0748,-0.0739,-0.065,-0.0499,-0.0319,-0.0093,0.0035,0.0224,0.0306,0.0267,0.0299,0.0342,0.0332,0.0458,0.046,0.0461,0.0462,0.0463,0,-0.0571,-0.0599,-0.0656,-0.0691,-0.071,-0.0754,-0.079,-0.0795,-0.0815,-0.0785,-0.0793,-0.0667,-0.0578,-0.0247,-0.0013,0.0263,0.0282,0.0423,0.0388,0.0339,0.0368,0.0356,0.0344,0.0427,0.0428,0.0428,0.0428,0,-0.0611,-0.0627,-0.0665,-0.0741,-0.0789,-0.0844,-0.0887,-0.0918,-0.0919,-0.0913,-0.0871,-0.0797,-0.0513,-0.0247,0.0094,0.0256,0.0362,0.0439,0.0416,0.0338,0.0317,0.0342,0.0331,0.0432,0.0432,0.0432,0.0431,0.0431,-0.0632,-0.0665,-0.0714,-0.0784,-0.0847,-0.0915,-0.0954,-0.0978,-0.1005,-0.0965,-0.091,-0.075,-0.0516,-0.0051,0.0186,0.0419,0.0406,0.0501,0.0497,0.0494,0.0433,0.0412,0.0538,0.0539,0.0539,0.0539,0.0539,0,-0.064,-0.0684,-0.0754,-0.0834,-0.0896,-0.0932,-0.1005,-0.1001,-0.1007,-0.0941,-0.0861,-0.0591,-0.0303,-0.0037,0.0318,0.0512,0.05,0.0563,0.0516,0.0511,0.0507,0.0444,0.0555,0.0555,0.0556,0.0556,0,0,-0.0647,-0.0693,-0.0727,-0.0835,-0.0903,-0.0961,-0.0995,-0.0983,-0.0926,-0.0841,-0.0719,-0.0563,-0.0277,-0.0014,0.0219,0.0409,0.0416,0.043,0.0398,0.0309,0.0303,0.0451,0.0346,0,0,0,0,0]}],[{"header":{"parameterUnit":"m.s-1","parameterCategory":2,"la1":30.2991,"la2":30.254,"lo1":-89.0895,"lo2":-89.0444,"dx":0.0017,"dy":0.0017,"nx":28,"ny":28,"refTime":"2022-12-23T15:00:00:Z","depth":"4","parameterNumber":2,"parameterNumberName":"U-component_of_CURRENTS"},"data":[0,0,0,0,0,0,0,0,0,0,0,0,0,0,0,0,0,0,0,0,0,0,0,0,0,0,0,0,0,0,0,0,0,0,0,0,0,0,0,0,0,0,0,0,0,0,0,0,0,0,0,0,0,0,0,0,0,0,-0.1708,-0.1709,0,-0.1803,-0.1804,-0.1805,-0.1849,-0.1849,-0.1849,-0.1849,-0.1943,-0.1945,-0.1948,0,0,0,0,0,0,0,0,0,0,0,0,0,-0.1609,-0.161,-0.1708,-0.1709,-0.171,-0.1803,-0.1804,-0.1805,-0.1849,-0.1849,-0.1849,-0.1849,-0.1942,-0.1945,-0.1948,0,0,0,0,0,0,0,0,0,0,0,0,0,-0.1673,-0.1611,-0.1708,-0.1743,-0.1747,-0.1803,-0.1804,-0.1806,-0.1849,-0.1849,-0.1849,-0.1849,-0.1941,-0.1945,-0.1949,-0.1975,0,0,-0.1961,-0.1962,0,0,0,0,0,0,0,0,-0.1669,-0.1676,-0.1737,-0.1741,-0.1745,-0.1814,-0.1804,-0.1863,-0.1849,-0.181,-0.1849,-0.1848,-0.19,-0.1907,-0.1925,-0.198,-0.1984,-0.1961,-0.1963,-0.1965,-0.1966,0,0,0,0,0,0,0,-0.1664,-0.1673,-0.1746,-0.1738,-0.1743,-0.177,-0.1778,-0.1815,-0.1855,-0.1814,-0.1817,-0.1828,-0.1902,-0.1921,-0.1928,-0.1985,-0.1961,-0.1964,-0.1967,-0.1968,-0.2126,-0.2128,0,0,0,0,0,0,-0.1651,-0.1668,-0.1743,-0.1749,-0.1706,-0.1771,-0.1781,-0.1792,-0.1855,-0.1864,-0.1828,-0.1829,-0.1915,-0.1923,-0.1931,-0.2021,-0.1965,-0.1969,-0.1971,-0.2125,-0.2127,-0.2129,0,0,0,0,0,0,-0.1648,-0.1656,-0.1739,-0.171,-0.1723,-0.1773,-0.1785,-0.1794,-0.1838,-0.1865,-0.1874,-0.1865,-0.1915,-0.1926,-0.1988,-0.2023,-0.197,-0.1974,-0.2122,-0.2125,-0.2128,-0.2166,0,0,0,0,0,0,-0.1645,-0.1655,-0.1675,-0.1709,-0.1724,-0.1782,-0.1786,-0.1796,-0.1843,-0.1847,-0.19,-0.1907,-0.1916,-0.1982,-0.1992,-0.2027,-0.1977,-0.212,-0.2124,-0.2127,-0.2163,-0.217,-0.2176,0,0,0,0,0,-0.1641,-0.1663,-0.1675,-0.1685,-0.1744,-0.1783,-0.1794,-0.1829,-0.1845,-0.1868,-0.1909,-0.1907,-0.2011,-0.1987,-0.1998,-0.2035,-0.2118,-0.2123,-0.2127,-0.2159,-0.2168,-0.2176,0,0,0,0,0,0,-0.1634,-0.1671,-0.1684,-0.1718,-0.1753,-0.1791,-0.1823,-0.1846,-0.1898,-0.1912,-0.1934,-0.1945,-0.2009,-0.2022,-0.1995,-0.2092,-0.2064,-0.207,-0.2085,-0.2094,-0.21,-0.2079,-0.198,0,0,0,0,0,-0.164,-0.1667,-0.1701,-0.1733,-0.1752,-0.1794,-0.1822,-0.1846,-0.1888,-0.1912,-0.1949,-0.1992,-0.2033,-0.2063,-0.2096,-0.2156,-0.2126,-0.2186,-0.2193,-0.2199,-0.219,-0.219,-0.2195,-0.2143,-0.2143,-0.2143,0,0,-0.1648,-0.1671,-0.1689,-0.1734,-0.1767,-0.1805,-0.1812,-0.1861,-0.19,-0.1914,-0.199,-0.2019,-0.2053,-0.2114,-0.2145,-0.2132,-0.2195,-0.2204,-0.2209,-0.2197,-0.2195,-0.22,-0.2204,-0.2146,-0.2145,-0.2145,0,0,-0.1666,-0.1698,-0.1724,-0.1755,-0.1806,-0.1833,-0.1851,-0.1905,-0.1939,-0.2008,-0.2026,-0.2075,-0.2148,-0.2172,-0.2195,-0.2263,-0.2228,-0.2283,-0.2307,-0.2308,-0.2311,-0.2314,-0.2258,-0.2255,-0.229,-0.229,-0.229,0,-0.1678,-0.1711,-0.1739,-0.1773,-0.1805,-0.1847,-0.1884,-0.1928,-0.1997,-0.2024,-0.2038,-0.2139,-0.2172,-0.2232,-0.2258,-0.2277,-0.225,-0.2271,-0.2314,-0.2316,-0.2318,-0.226,-0.2256,-0.2293,-0.2292,-0.2292,-0.2292,0,-0.1703,-0.1745,-0.1767,-0.182,-0.1858,-0.19,-0.1951,-0.2001,-0.2049,-0.2083,-0.2157,-0.2202,-0.2252,-0.2282,-0.2295,-0.2338,-0.2302,-0.2316,-0.2284,-0.2325,-0.2262,-0.2257,-0.2296,-0.2295,-0.2295,-0.2294,0,0,-0.1687,-0.1768,-0.178,-0.1812,-0.1887,-0.1916,-0.1988,-0.2049,-0.209,-0.216,-0.2206,-0.2288,-0.23,-0.2325,-0.235,-0.2363,-0.2355,-0.235,-0.2349,-0.2278,-0.2311,-0.2179,-0.2161,-0.2377,-0.2377,-0.2378,-0.225,0,-0.1702,-0.1765,-0.1806,-0.1875,-0.191,-0.197,-0.2026,-0.2088,-0.2144,-0.2199,-0.2248,-0.2303,-0.2321,-0.2348,-0.2365,-0.2367,-0.235,-0.2385,-0.2296,-0.2292,-0.2158,-0.2155,-0.2378,-0.2247,-0.2246,-0.2245,-0.2244,0,-0.1707,-0.1749,-0.1816,-0.1895,-0.1917,-0.1966,-0.205,-0.2105,-0.2183,-0.2224,-0.2278,-0.2311,-0.2353,-0.236,-0.2353,-0.2375,-0.2338,-0.2326,-0.2322,-0.218,-0.2153,-0.2206,-0.2236,-0.2237,-0.2237,-0.2238,-0.2238,0,-0.1662,-0.1755,-0.1808,-0.1838,-0.1934,-0.1977,-0.2029,-0.2113,-0.2153,-0.2234,-0.2261,-0.2314,-0.2335,-0.2327,-0.231,-0.2332,-0.227,-0.2296,-0.2126,-0.2115,-0.2254,-0.2253,-0.2259,-0.226,-0.226,-0.226,-0.2261,0,-0.1642,-0.1689,-0.1796,-0.182,-0.1881,-0.1955,-0.2018,-0.2077,-0.2151,-0.2173,-0.2262,-0.2268,-0.2332,-0.2312,-0.229,-0.2175,-0.2245,-0.2105,-0.2076,-0.2271,-0.2273,-0.2248,-0.2249,-0.2255,-0.2257,-0.2257,-0.2258,0,-0.158,-0.1656,-0.1721,-0.1827,-0.1861,-0.1903,-0.1998,-0.2026,-0.2112,-0.2141,-0.2163,-0.2228,-0.2195,-0.2213,-0.2182,-0.2121,-0.205,-0.1986,-0.2145,-0.2131,-0.1891,-0.1896,-0.1775,-0.1769,-0.1764,-0.176,-0.1757,0,-0.1548,-0.1579,-0.1704,-0.1736,-0.1789,-0.186,-0.1893,-0.1994,-0.2013,-0.2086,-0.2073,-0.2086,-0.2107,-0.1927,-0.1983,-0.1898,-0.1889,-0.1824,-0.19,-0.1859,-0.1843,-0.1855,-0.1866,-0.1749,-0.1748,-0.1747,-0.1746,0,-0.148,-0.1546,-0.1594,-0.1654,-0.1706,-0.1753,-0.1808,-0.1804,-0.189,-0.1989,-0.1915,-0.1884,-0.1835,-0.1811,-0.1752,-0.1707,-0.1866,-0.1775,-0.1785,-0.1855,-0.1827,-0.1819,-0.1835,-0.1729,-0.1731,-0.1733,-0.1734,0,-0.1431,-0.1448,-0.1512,-0.1551,-0.1611,-0.1608,-0.166,-0.1654,-0.168,-0.1763,-0.1723,-0.1738,-0.1794,-0.1705,-0.1655,-0.16,-0.1592,-0.1552,-0.1574,-0.1593,-0.1602,-0.1543,-0.1309,0,0,0,0,0,-0.1366,-0.1365,-0.1393,-0.1423,-0.1472,-0.15,-0.1577,-0.1627,-0.171,-0.1605,-0.1658,-0.16,-0.1527,-0.1544,-0.1449,-0.1593,-0.1612,-0.1479,-0.1582,-0.1637,-0.1656,-0.1689,0,0,0,0,0,0,-0.1322,-0.1351,-0.135,-0.1297,-0.1286,-0.1317,-0.1359,-0.1422,-0.1376,-0.1466,-0.1429,-0.1502,-0.1456,-0.1543,-0.1412,-0.1418,-0.145,-0.1504,-0.1499,-0.1626,-0.1643,-0.1659,-0.1699,0,0,0,0,0]},{"header":{"parameterUnit":"m.s-1","parameterCategory":2,"la1":30.2991,"la2":30.254,"lo1":-89.0895,"lo2":-89.0444,"dx":0.0017,"dy":0.0017,"nx":28,"ny":28,"refTime":"2022-12-23T15:00:00:Z","depth":"4","parameterNumber":3,"parameterNumberName":"V-component_of_CURRENTS"},"data":[0,0,0,0,0,0,0,0,0,0,0,0,0,0,0,0,0,0,0,0,0,0,0,0,0,0,0,0,0,0,0,0,0,0,0,0,0,0,0,0,0,0,0,0,0,0,0,0,0,0,0,0,0,0,0,0,0,0,0.004,0.004,0,0.0071,0.0071,0.0072,0.0108,0.0108,0.0109,0.011,0.018,0.0181,0.0183,0,0,0,0,0,0,0,0,0,0,0,0,0,0.0008,0.0009,0.004,0.004,0.0041,0.0071,0.0071,0.0072,0.0108,0.0108,0.0109,0.011,0.018,0.0181,0.0183,0,0,0,0,0,0,0,0,0,0,0,0,0,0.0029,0.0009,0.004,0.0063,0.0065,0.0071,0.0071,0.0072,0.0108,0.0109,0.0109,0.011,0.0179,0.0181,0.0183,0.0178,0,0,0.0189,0.019,0,0,0,0,0,0,0,0,0.0027,0.003,0.0059,0.0061,0.0064,0.0087,0.0086,0.0109,0.0107,0.0091,0.011,0.0111,0.0152,0.0156,0.0159,0.0181,0.0184,0.0189,0.019,0.0191,0.0192,0,0,0,0,0,0,0,0.0026,0.0029,0.0052,0.0059,0.0062,0.007,0.0074,0.009,0.0117,0.0093,0.0095,0.0099,0.0154,0.0157,0.0161,0.0185,0.0189,0.0191,0.0192,0.0193,0.0209,0.0209,0,0,0,0,0,0,0.0022,0.0027,0.0051,0.0053,0.0048,0.007,0.0074,0.0078,0.0116,0.0122,0.0098,0.0101,0.0153,0.0159,0.0164,0.0153,0.0191,0.0193,0.0194,0.021,0.0209,0.0208,0,0,0,0,0,0,0.0021,0.0024,0.005,0.0041,0.0045,0.007,0.0074,0.0078,0.0084,0.012,0.0127,0.01,0.0154,0.0161,0.0172,0.0157,0.0194,0.0196,0.0211,0.021,0.0209,0.0137,0,0,0,0,0,0,0.002,0.0023,0.0022,0.0041,0.0045,0.0049,0.0073,0.0078,0.0085,0.0089,0.0123,0.0131,0.0155,0.0168,0.0174,0.016,0.0197,0.0212,0.0211,0.0209,0.0141,0.0134,0.0128,0,0,0,0,0,0.0019,0.0012,0.0021,0.0024,0.0043,0.0048,0.0051,0.0071,0.0084,0.0081,0.0102,0.013,0.0163,0.0169,0.0175,0.0163,0.0213,0.0211,0.0209,0.0143,0.0135,0.0128,0,0,0,0,0,0,-0.0003,0.0015,0.0026,0.0026,0.0035,0.0054,0.0052,0.0066,0.0079,0.0084,0.0119,0.0127,0.0129,0.0155,0.0161,0.0163,0.0193,0.0193,0.0141,0.0133,0.0127,0.011,0.0199,0,0,0,0,0,-0.001,-0.0009,0.0009,0.0007,0.001,0.003,0.0034,0.0047,0.0062,0.0069,0.0092,0.0114,0.0125,0.0137,0.0152,0.0154,0.0163,0.0151,0.0145,0.0139,0.0129,0.0137,0.013,0.0203,0.0203,0.0203,0,0,-0.0019,-0.0009,-0.0009,0.0002,0.0011,0.0002,0.0034,0.0036,0.0027,0.0074,0.0069,0.0091,0.012,0.0118,0.0123,0.0141,0.0118,0.0137,0.0132,0.0125,0.0134,0.0127,0.0121,0.0202,0.0202,0.0202,0,0,-0.0043,-0.003,-0.0039,-0.0036,-0.0026,-0.0019,-0.0021,-0.0005,0.0002,0.0,0.0028,0.004,0.0062,0.0076,0.0087,0.0055,0.0081,0.0064,0.0023,0.0029,0.0023,0.0018,-0.0005,-0.0011,0.0065,0.0065,0.0065,0,-0.0055,-0.0063,-0.0042,-0.0054,-0.006,-0.0033,-0.0052,-0.0046,-0.003,-0.0031,-0.0009,0.0011,0.0039,0.0033,0.0022,0.004,0.0039,0.0048,0.002,0.0016,0.0012,-0.001,-0.0017,0.0061,0.0062,0.0062,0.0062,0,-0.0084,-0.0095,-0.0103,-0.0111,-0.0116,-0.0127,-0.0118,-0.0122,-0.0109,-0.01,-0.0099,-0.0065,-0.005,-0.004,-0.0019,-0.0035,-0.003,0.0007,0.0037,-0.0,-0.0021,-0.0026,0.0056,0.0057,0.0058,0.0059,0,0,-0.0106,-0.012,-0.0125,-0.0143,-0.0147,-0.0158,-0.0177,-0.0188,-0.0203,-0.0181,-0.0197,-0.0173,-0.0147,-0.0133,-0.01,-0.0092,-0.0126,-0.006,-0.0058,-0.0089,-0.0138,-0.0046,-0.0043,-0.0091,-0.0092,-0.0093,-0.0151,0,-0.0138,-0.0174,-0.0173,-0.022,-0.0241,-0.0234,-0.0259,-0.0264,-0.0257,-0.0265,-0.0229,-0.0227,-0.0184,-0.0176,-0.0164,-0.0124,-0.0139,-0.0115,-0.0092,-0.0092,-0.0009,-0.0045,-0.0095,-0.0154,-0.0155,-0.0156,-0.0157,0,-0.0169,-0.0191,-0.0237,-0.0279,-0.0288,-0.0315,-0.0349,-0.0363,-0.0364,-0.0355,-0.0343,-0.0311,-0.0297,-0.0251,-0.0224,-0.0211,-0.0194,-0.0167,-0.0167,-0.0058,-0.0008,-0.0101,-0.0166,-0.0165,-0.0165,-0.0164,-0.0163,0,-0.0198,-0.0241,-0.0282,-0.0295,-0.0333,-0.0359,-0.0379,-0.0392,-0.0411,-0.0409,-0.0417,-0.0388,-0.0373,-0.0337,-0.0268,-0.0255,-0.0239,-0.0209,-0.0127,-0.0122,-0.0157,-0.015,-0.0221,-0.0221,-0.022,-0.022,-0.022,0,-0.0233,-0.027,-0.0301,-0.0326,-0.0385,-0.0393,-0.0448,-0.0459,-0.0477,-0.0505,-0.0463,-0.047,-0.0392,-0.036,-0.0306,-0.0221,-0.0269,-0.0148,-0.0125,-0.0189,-0.0185,-0.0163,-0.0155,-0.0222,-0.0222,-0.0221,-0.0221,0,-0.0258,-0.0277,-0.033,-0.0379,-0.0401,-0.044,-0.0499,-0.0532,-0.0537,-0.0572,-0.0575,-0.0542,-0.0479,-0.0402,-0.0339,-0.0262,-0.0194,-0.0165,-0.0266,-0.0245,-0.0088,-0.0084,-0.0093,-0.009,-0.0087,-0.0085,-0.0084,0,-0.0272,-0.0298,-0.0369,-0.0408,-0.0435,-0.0492,-0.0535,-0.0562,-0.0591,-0.0612,-0.063,-0.0585,-0.0544,-0.0402,-0.0305,-0.0192,-0.0161,-0.0143,-0.0095,-0.0096,-0.0073,-0.0073,-0.0072,-0.008,-0.0079,-0.0078,-0.0078,0,-0.0294,-0.0318,-0.0361,-0.0444,-0.0501,-0.0563,-0.0619,-0.0645,-0.067,-0.0684,-0.0665,-0.0582,-0.0505,-0.0379,-0.0276,-0.0196,-0.0149,-0.0117,-0.0121,-0.0076,-0.008,-0.006,-0.0062,-0.0069,-0.007,-0.0071,-0.0072,0,-0.0302,-0.0336,-0.0395,-0.0466,-0.0547,-0.0609,-0.0639,-0.0667,-0.0692,-0.07,-0.0696,-0.0608,-0.0563,-0.0384,-0.0297,-0.0182,-0.015,-0.0114,-0.0118,-0.0127,-0.0082,-0.0089,-0.0073,0,0,0,0,0,-0.029,-0.0328,-0.0412,-0.0495,-0.0583,-0.062,-0.0686,-0.0704,-0.0728,-0.0713,-0.0699,-0.062,-0.0449,-0.0388,-0.0258,-0.0246,-0.0132,-0.0087,-0.0093,-0.0022,-0.0032,0.004,0,0,0,0,0,0,-0.0283,-0.0345,-0.0402,-0.0507,-0.0564,-0.0651,-0.0685,-0.0703,-0.0687,-0.0693,-0.0608,-0.0566,-0.0409,-0.0521,-0.0249,-0.0216,-0.0195,-0.0015,-0.0011,-0.0016,-0.0025,-0.0033,0.0037,0,0,0,0,0]}]]